Terug naar catalogus

COSMOS 292

ActiefMilitairLEO
NORAD 4070·PAYLOAD·🇷🇺 Russia

Gelanceerd Aug 13, 1969 vanaf Plesetsk Cosmodrome

Loading…

Volgende Passages (komende 24 uur)

TLE

VersSource: Space-Track

Epoch: Sep 14, 2026, 15:37 UTC

1 04070U 69070A   26257.65110672  .00000164  00000-0  44310-4 0  9990
2 04070  74.0476 135.8473 0008666  68.3007 291.9079 14.55492192 19146

Volg COSMOS 292 in realtime met AllMySat

Download on the App Store